Location: Monteux
(44.0348°N, 4.9972°E)
Time: 18:17:34
(UTC+00:00)

Daily predictions for brighter satellites

Satellite Brightness Start Highest point End
(mag) Time Altitude Azimuth Time Altitude Azimuth Time Altitude Azimuth
USA 281 4.5 16:29:34 10° E 16:33:44 18° NE 16:37:55 10° N
Cosmos 1933 4.0 16:30:35 10° SSE 16:34:16 35° E 16:37:59 10° NNE
Cosmos 1943 Rocket 2.7 16:31:09 10° N 16:36:15 35° NE 16:41:20 10° ESE
Cosmos 2154 Rocket 4.3 16:31:11 10° N 16:37:33 78° W 16:43:52 10° S
USA 267 4.2 16:32:17 10° ENE 16:37:47 30° N 16:43:18 10° NW
Cosmos 389 Rocket 2.3 16:34:23 10° S 16:37:47 78° E 16:41:12 10° NNE
Cosmos 1356 3.3 16:35:10 10° N 16:38:35 67° ENE 16:42:00 10° SSE
BREEZE-M DEB (TANK) 2.6 16:41:01 10° W 16:43:09 34° NNW 16:45:13 10° NE
H-2A R/B 3.4 16:39:36 10° S 16:43:24 63° W 16:47:17 10° NNW
NOAA 12 4.2 16:38:31 10° SSE 16:43:41 54° ENE 16:48:52 10° N
Meteor 1-25 Rocket 4.4 16:41:54 10° N 16:47:23 50° ENE 16:52:55 10° SSE
X-37B 1.5 16:47:16 10° SW 16:50:13 38° SSE 16:52:59 11° E
Landsat 5 3.8 16:47:27 10° NNE 16:51:56 83° WNW 16:56:27 10° SSW
YAOGAN 1 4.4 16:51:53 11° ENE 16:52:00 11° ENE 16:53:09 10° NE
Lacrosse 5 rocket 1.4 16:48:41 10° WSW 16:52:20 59° NW 16:55:49 10° NE
Sich 1 3.2 16:49:57 10° N 16:54:20 79° W 16:58:38 10° S
Cosmos 2341 Rocket 4.0 16:49:21 10° N 16:55:41 80° E 17:02:02 10° S
Cosmos 1470 Rocket 4.2 16:52:27 10° N 16:56:21 31° ENE 17:00:12 10° SE
SL-8 Rocket 4.0 16:51:38 10° N 16:57:51 64° E 17:04:05 10° SSE
NOAA 6 4.4 16:52:47 10° S 16:57:54 70° WSW 17:03:03 10° NNW
Cosmos 1151 Rocket 3.1 16:54:51 10° S 16:59:00 53° E 17:03:10 10° NNE
ERS-2 3.1 16:57:33 10° NE 17:00:43 27° E 17:03:53 10° SSE
Cosmos 1515 Rocket 4.4 16:58:53 10° SSE 17:02:41 30° E 17:06:32 10° NNE
FengYun 1-2 T 4.3 16:58:27 10° SSE 17:03:51 58° ENE 17:09:14 10° N
CENTAUR R/B 4.1 17:03:37 10° ESE 17:05:38 12° E 17:06:27 11° E
Cosmos 2285 Rocket 4.0 17:00:16 10° NNW 17:06:42 77° ENE 17:13:02 10° SSE
ADEOS Rocket 4.2 16:59:47 10° N 17:07:24 61° WNW 17:14:55 10° SSW
BREEZE-M DEB (TANK) 1.6 17:05:27 10° WSW 17:08:09 70° NNW 17:09:12 23° NE
Cosmos 2297 3.8 17:02:37 10° NNW 17:08:21 82° WSW 17:14:03 10° SSE
Cosmos 1606 3.8 17:04:36 10° SSW 17:08:21 48° W 17:12:08 10° N
COSMO-SKYMED 1 3.5 17:04:57 10° NE 17:08:43 28° E 17:12:28 10° SSE
CSL-04 DEB 4.4 17:04:51 10° NNE 17:09:01 78° ESE 17:13:16 10° S
Cosmos 1867 4.4 17:04:23 10° WSW 17:09:37 47° NW 17:14:54 10° NNE
Cosmos 2228 Rocket 4.5 17:06:59 10° SE 17:10:06 19° E 17:11:14 17° ENE
Cosmos 44 3.8 17:06:24 10° NW 17:11:43 72° WSW 17:17:07 10° SSE
SL-16 R/B 2.4 17:06:06 10° SSW 17:11:45 74° WNW 17:17:26 10° NNE
YAOGAN 6 3.9 17:11:43 10° S 17:15:11 43° W 17:18:39 10° NNW
ISS -2.1 17:14:35 10° NW 17:17:16 22° N 17:18:35 17° NNE
Envisat 4.3 17:13:39 10° S 17:18:29 44° W 17:23:21 10° NNW
Cosmos 2181 Rocket 4.1 17:13:16 10° S 17:19:41 88° E 17:26:05 10° N
SL-23 DEB 4.0 17:19:37 10° SW 17:23:08 77° SE 17:26:31 21° ENE
Cosmos 1328 Rocket 3.5 17:19:26 10° S 17:23:44 88° ESE 17:28:06 10° N
Cosmos 1500 4.1 17:20:32 10° NNE 17:23:48 26° ENE 17:27:03 10° SE
Cosmos 1933 Rocket 3.8 17:22:16 10° N 17:26:35 45° ENE 17:30:50 10° SSE
Cosmos 773 Rocket 4.1 17:21:26 10° SSW 17:26:41 79° WNW 17:32:01 10° NNE
Cosmos 1666 Rocket 4.4 17:23:16 10° NNW 17:27:36 54° W 17:31:56 10° S
Helios 1A Rocket 4.0 17:29:51 23° NE 17:29:51 23° NE 17:32:19 10° N
Cosmos 1656 Rocket 4.2 17:27:08 10° N 17:32:17 35° NE 17:35:32 19° ESE
Cosmos 2263 4.4 17:27:33 10° NNW 17:32:56 44° ENE 17:38:15 10° SE
NOSS 3-2 (A) 4.0 17:30:09 10° S 17:35:06 34° ESE 17:37:25 25° ENE
PSLV R/B 4.4 17:36:23 31° ENE 17:37:21 36° E 17:41:06 10° SSE
OE (NEXTSAT) 4.4 17:35:52 10° WNW 17:39:19 61° N 17:40:07 45° ENE
Cosmos 1939 Rocket 2.6 17:36:01 10° SSE 17:39:52 71° ENE 17:43:47 10° N
Okean-O 3.1 17:36:00 10° SE 17:40:03 36° ENE 17:44:08 10° N
CZ-4 R/B 2.3 17:41:04 29° NE 17:41:04 29° NE 17:43:44 10° N
Okean O Rocket 2.8 17:36:07 10° S 17:40:17 45° W 17:44:31 10° NNW
Cosmos 482 Debris 4.1 17:39:14 10° WNW 17:40:27 35° W 17:40:27 35° W
Meteor 2-6 Rocket 4.4 17:35:51 10° SSE 17:41:09 46° E 17:45:25 15° NNE
CZ-4B R/B 1.5 17:39:24 16° N 17:41:44 67° WNW 17:44:52 10° SSW
H-2A R/B 3.8 17:38:38 10° N 17:42:23 32° WNW 17:46:12 10° SW
SL-08 R/B 4.3 17:38:42 10° N 17:44:51 73° E 17:50:57 10° SSE
CZ-2C R/B 3.1 17:40:48 10° SE 17:45:32 44° ENE 17:50:07 10° N
Meteor 1-11 Rocket 4.4 17:41:30 10° N 17:46:40 33° ENE 17:48:34 27° ESE
USA 215 3.4 17:43:41 25° ENE 17:47:30 58° SE 17:53:54 10° SSW
Cosmos 1812 3.2 17:46:29 10° SSE 17:49:34 40° ESE 17:49:34 40° ESE
USA 238 DEB 4.0 17:47:26 10° S 17:53:33 44° ESE 17:55:54 32° ENE
USA 238 4.0 17:47:33 10° S 17:53:40 43° ESE 17:55:58 33° ENE
SAR-Lupe-4 3.4 17:54:21 45° NNE 17:55:21 81° E 17:58:56 10° SSW
SKYMED 2 3.5 17:53:27 16° NNE 17:56:58 89° W 18:01:18 10° SSW
Cosmos 923 Rocket 4.1 17:52:59 10° S 17:57:59 50° ESE 17:59:17 41° ENE
CSL-04 Rocket 4.4 18:01:09 33° NE 18:01:09 33° NE 18:04:49 10° N
Meteor 1-4 Rocket 3.9 17:58:00 10° SW 18:01:23 37° WNW 18:04:23 12° N
Cosmos 158 Rocket 3.9 17:57:32 10° S 18:02:21 52° ESE 18:03:00 49° ENE
Cosmos 546 4.4 18:01:37 10° WSW 18:05:26 85° SSE 18:05:32 83° ESE
CZ-2D R/B 3.2 18:01:44 10° S 18:05:32 82° WSW 18:09:23 10° NNW
MOS 1 Rocket 3.6 18:03:11 31° NE 18:05:41 56° E 18:10:56 10° S
H-2A R/B 2.2 18:06:31 47° ENE 18:06:31 47° ENE 18:11:20 10° N
Cosmos 1603 3.6 18:01:32 10° SSW 18:07:10 85° ESE 18:09:59 31° NNE
Cosmos 1782 4.2 18:04:27 10° SSW 18:08:10 39° WNW 18:11:56 10° N
IRS-1C Rocket 4.2 18:04:51 10° S 18:10:07 75° WSW 18:15:26 10° NNW
Cosmos 1943 3.1 18:05:58 10° SSW 18:11:37 82° ESE 18:14:01 37° NNE
SAR-Lupe-1 4.4 18:11:44 53° NNW 18:12:20 64° WNW 18:15:53 10° SSW
Meteor 1-5 Rocket 4.2 18:07:39 10° N 18:13:36 84° E 18:19:20 10° SSE
Cosmos 2369 Rocket 2.5 18:09:24 10° NNW 18:15:03 67° WSW 18:20:38 10° SSE
USA 281 3.1 18:10:43 10° SE 18:17:14 74° ENE 18:23:48 10° NNW
USA 267 3.4 18:18:31 45° ENE 18:19:57 53° NNE 18:26:16 10° NW
Cosmos 1943 Rocket 3.7 18:14:55 10° NW 18:19:58 37° WSW 18:25:02 10° S
Cosmos 2239 Rocket 4.3 18:14:18 10° N 18:20:30 79° E 18:26:42 10° S
FALCON 9 R/B 3.5 18:20:26 10° SSW 18:20:40 11° SSW 18:20:40 11° SSW
Cosmos 1238 Rocket 4.0 18:24:01 39° S 18:24:01 39° S 18:27:11 10° S
ARGOS 4.4 18:27:20 27° N 18:27:20 27° N 18:29:49 10° N
Cosmos 1680 Rocket 3.4 18:20:00 10° S 18:25:01 67° ESE 18:25:01 67° ESE
X-37B 2.6 18:23:34 10° W 18:25:15 28° W 18:25:15 28° W
NOSS 3-3 (A) 4.4 18:19:17 10° NW 18:26:48 68° NE 18:29:52 41° ESE
NOSS 3-3 (C) 4.4 18:19:23 10° NNW 18:26:53 68° NE 18:29:53 42° ESE
Meteor 1-27 Rocket 4.4 18:21:35 10° S 18:25:04 37° SSE 18:25:04 37° SSE
YAOGAN 1 3.5 18:29:03 38° NNW 18:29:03 38° NNW 18:31:46 10° NNW
Meteor 1-10 Rocket 4.1 18:24:48 10° S 18:30:28 86° W 18:33:01 34° N
Lacrosse 5 rocket 3.5 18:29:52 10° WNW 18:31:27 15° NNW 18:31:27 15° NNW
Cosmos 44 Rocket 3.7 18:38:01 10° NW 18:42:15 60° NNW 18:42:15 60° NNW
Cosmos 1934 Rocket 3.9 18:38:14 10° N 18:44:39 84° E 18:50:57 10° S
COSMO-SKYMED 1 4.4 18:42:02 15° NNW 18:44:49 28° WNW 18:48:32 10° SW
Cosmos 2112 Rocket 4.4 18:40:11 10° SSW 18:44:13 54° SSW 18:44:13 54° SSW
Cosmos 2228 Rocket 4.2 18:43:39 10° SSW 18:47:58 43° WNW 18:48:48 38° NW
CENTAUR R/B 2.6 18:48:56 10° SSW 18:53:42 62° S 18:53:42 62° S
NOSS 3-2 (C) 3.8 18:53:46 10° SSW 18:57:45 50° SSW 18:57:45 50° SSW
CZ-4 R/B 4.2 19:17:05 15° WNW 19:17:05 15° WNW 19:18:11 10° NW
NOSS 3-2 (A) 4.3 19:20:09 10° WSW 19:24:51 44° WNW 19:24:51 44° WNW
USA 215 3.8 19:31:02 50° NW 19:31:02 50° NW 19:36:44 10° WSW
H-2A R/B 4.2 19:47:09 22° WNW 19:47:09 22° WNW 19:50:08 10° NW
